K6DJR Weather Reports


time (UTC)temp
C
wind
direction
speed
KPH
gust
KPH
rain 1hr
cm
rain 24hr
cm
rain mn
cm
humidity
%
barometer
mb
20260504193016 18 349 3.2 12.9 0.00 0.00 0.00 39 1006.3
20260504191522 18 180 4.8 17.7 0.00 0.00 0.00 38 1006.3
20260504190027 18 209 8.0 22.5 0.00 0.00 0.00 39 1006.3
20260504184508 18 360 6.4 24.1 0.00 0.00 0.00 38 1006.6
20260504183010 18 235 6.4 20.9 0.00 0.00 0.00 39 1006.6
20260504181518 17 315 4.8 19.3 0.00 0.00 0.00 42 1006.8
20260504180022 16 9 4.8 17.7 0.00 0.00 0.00 44 1006.9
20260504174522 15 360 3.2 12.9 0.00 0.00 0.00 45 1007.0
20260504173010 15 255 3.2 11.3 0.00 0.00 0.00 44 1006.9
20260504171516 15 360 3.2 14.5 0.00 0.00 0.00 44 1007.0
20260504081513 5 360 1.6 4.8 0.00 0.00 0.00 73 1009.3
20260504050010 2 360 0.0 4.8 0.00 0.00 0.00 66 1009.2
20260504044514 2 80 1.6 4.8 0.00 0.00 0.00 66 1009.2
20260504043029 2 360 0.0 3.2 0.00 0.00 0.00 67 1009.4
20260504041524 2 360 0.0 3.2 0.00 0.00 0.00 69 1009.3
20260504040015 2 62 1.6 4.8 0.00 0.00 0.00 68 1009.3
20260504034511 2 360 0.0 4.8 0.00 0.00 0.00 69 1009.1
20260504033016 2 360 0.0 4.8 0.00 0.00 0.00 66 1009.2
20260504031521 3 360 1.6 4.8 0.00 0.00 0.00 66 1009.1
20260504030026 3 360 1.6 4.8 0.00 0.00 0.00 65 1009.1
20260504024510 3 360 0.0 4.8 0.00 0.00 0.00 67 1009.2
20260504023015 3 360 1.6 3.2 0.00 0.03 0.00 67 1009.3
20260504021520 3 360 0.0 4.8 0.00 0.03 0.00 66 1009.3
20260504020020 3 360 1.6 6.4 0.00 0.03 0.00 65 1009.2
20260504014534 3 360 3.2 4.8 0.00 0.05 0.00 65 1009.0
20260504013017 3 360 0.0 6.4 0.00 0.13 0.00 66 1008.9
20260504011514 5 34 3.2 6.4 0.00 0.15 0.00 62 1008.9
20260504010020 6 360 0.0 4.8 0.00 0.15 0.00 56 1008.9
20260504004524 6 360 0.0 4.8 0.00 0.18 0.00 55 1008.6
20260504003025 6 360 0.0 4.8 0.00 0.18 0.00 56 1008.4
20260504001512 6 360 0.0 4.8 0.00 0.18 0.00 56 1008.3
20260504000017 7 360 0.0 6.4 0.00 0.18 0.00 50 1008.1
20260503234523 7 360 1.6 8.0 0.00 0.18 0.00 49 1007.9
20260503233021 7 360 4.8 14.5 0.00 0.18 0.00 47 1007.8
20260503231525 7 360 3.2 19.3 0.00 0.18 0.00 47 1007.8
20260503230016 7 360 3.2 16.1 0.00 0.18 0.00 48 1007.6
20260503224517 8 144 4.8 14.5 0.00 0.18 0.00 47 1007.5
20260503223023 8 155 8.0 24.1 0.00 0.18 0.00 45 1007.5
20260503221524 8 174 3.2 17.7 0.00 0.18 0.00 46 1007.3
20260503220026 8 15 4.8 16.1 0.00 0.18 0.00 47 1007.3
20260503214538 8 187 4.8 20.9 0.00 0.18 0.00 45 1007.1
20260503213022 8 22 6.4 24.1 0.00 0.18 0.00 45 1007.3
20260503211523 8 360 8.0 19.3 0.00 0.18 0.00 45 1007.1
20260503210024 8 192 4.8 25.7 0.00 0.20 0.00 45 1007.0
20260503204530 8 237 6.4 27.4 0.00 0.28 0.00 44 1006.9
20260503203018 8 161 3.2 32.2 0.00 0.38 0.00 44 1006.9
20260503201503 8 19 4.8 22.5 0.00 0.66 0.00 44 1006.8
20260503200007 9 244 6.4 19.3 0.00 0.66 0.00 44 1006.8
20260503194513 8 323 6.4 19.3 0.00 0.66 0.00 46 1007.0